EST,Max TemperatureF,Mean TemperatureF,Min TemperatureF,Max Dew PointF,MeanDew PointF,Min DewpointF,Max Humidity, Mean Humidity, Min Humidity, Max Sea Level PressureIn, Mean Sea Level PressureIn, Min Sea Level PressureIn, Max VisibilityMiles, Mean VisibilityMiles, Min VisibilityMiles, Max Wind SpeedMPH, Mean Wind SpeedMPH, Max Gust SpeedMPH,PrecipitationIn, CloudCover, Events, WindDirDegrees
2012-11-1,57,49,41,39,39,37,87,66,48,29.81,29.74,29.70,10,10,10,15,6,18,0.00,3,,261
2012-11-2,59,48,37,37,36,30,100,69,36,29.96,29.84,29.78,10,10,10,16,6,22,0.00,2,,283
2012-11-3,55,44,32,39,35,32,100,81,44,30.11,30.04,29.96,10,10,7,12,2,20,0.00,1,,330
2012-11-4,50,44,37,45,41,37,100,89,62,30.12,30.06,30.00,10,10,4,6,1,,0.00,5,,50
2012-11-5,53,42,32,41,34,28,100,79,41,30.15,30.08,30.02,10,10,7,10,3,17,0.00,0,,355
2012-11-6,48,39,30,37,35,30,100,80,66,30.15,30.06,29.90,10,10,7,12,3,17,0.00,3,,7
2012-11-7,48,45,42,43,38,34,93,79,66,29.91,29.86,29.83,10,10,5,13,8,21,0.00,7,,338
2012-11-8,59,46,32,36,29,14,93,60,17,30.08,29.97,29.90,10,10,10,16,5,24,0.00,2,,305
2012-11-9,60,44,28,39,33,28,100,74,31,30.26,30.20,30.08,10,10,10,10,1,17,0.00,0,,311
2012-11-10,71,52,33,45,38,34,100,69,27,30.41,30.33,30.25,10,9,2,9,2,,0.00,0,,179
2012-11-11,73,56,39,54,44,39,100,72,29,30.50,30.45,30.41,10,8,1,8,1,,0.00,0,,175
2012-11-12,77,60,44,63,56,45,100,80,50,30.46,30.34,30.19,10,8,0,14,4,18,0.00,2,,163
2012-11-13,66,54,42,64,51,43,100,98,88,30.43,30.31,30.16,10,8,2,14,6,23,0.00,7,,10
2012-11-14,53,44,35,39,35,32,93,77,54,30.48,30.44,30.40,10,10,10,15,7,18,0.00,2,,14
2012-11-15,55,46,37,46,42,34,100,83,71,30.38,30.30,30.26,10,10,7,9,4,10,0.00,7,,15
2012-11-16,55,44,33,46,40,34,100,83,51,30.40,30.31,30.26,10,10,10,12,4,16,0.00,2,,5
2012-11-17,57,45,33,46,40,34,100,82,51,30.51,30.47,30.39,10,10,10,16,4,21,0.00,3,,19
2012-11-18,60,54,48,48,47,46,93,77,59,30.47,30.43,30.36,10,10,10,24,11,28,0.00,6,,35
2012-11-19,53,52,51,48,46,45,88,81,76,30.36,30.26,30.17,10,10,10,14,9,24,0.00,8,,9
2012-11-20,59,52,46,48,46,45,93,77,63,30.17,30.11,30.07,10,10,10,9,5,,0.00,7,,13
2012-11-21,59,49,39,46,42,37,100,84,55,30.18,30.14,30.09,10,9,4,13,3,16,0.00,1,,14
2012-11-22,60,48,35,43,39,36,100,79,45,30.23,30.18,30.15,10,10,7,12,4,20,0.00,0,,1
2012-11-23,66,48,30,43,36,30,100,67,30,30.16,29.98,29.82,10,10,4,12,2,,0.00,0,,221
2012-11-24,53,40,28,39,26,19,86,55,32,30.11,29.97,29.82,10,10,10,13,6,22,0.00,0,,323
2012-11-25,51,37,23,25,22,18,93,60,26,30.16,30.09,30.01,10,10,10,14,3,18,0.00,0,,217
2012-11-26,62,46,30,36,29,25,93,56,24,30.21,30.15,30.06,10,10,10,6,2,,0.00,0,,212
2012-11-27,57,48,39,46,40,36,100,79,48,30.24,30.17,30.10,10,9,3,9,3,17,0.00,6,,314
2012-11-28,51,40,28,39,33,28,100,83,44,30.39,30.30,30.23,10,8,1,13,3,21,0.00,0,,333
2012-11-29,55,40,24,37,29,25,100,79,35,30.49,30.42,30.37,10,10,7,8,1,,0.00,0,,184
2012-11-30,60,44,28,39,34,28,100,76,39,30.41,30.36,30.30,10,10,7,9,2,,0.00,0,,206